Regional Weather Roundup
Issued by NWS

Home | Current Version | Previous Version | Graphics & Text | Print | Product List | Glossary On
Versions: 1 2 3 4 5 6 7 8 9 10 11 12 13 14 15 16 17 18 19 20 21 22 23 24 25 26 27 28 29 30 31 32 33 34 35 36 37 38 39 40 41 42 43 44 45 46 47 48 49 50
000
ASUS43 KLOT 100210
RWRIL

ILLINOIS REGIONAL WEATHER ROUNDUP
NATIONAL WEATHER SERVICE CHICAGO/ROMEOVILLE IL
900 PM CDT WED JUL 09 2014

NOTE: "FAIR" INDICATES FEW OR NO CLOUDS BELOW 12,000 FEET WITH NO
SIGNIFICANT WEATHER AND/OR OBSTRUCTIONS TO VISIBILITY.

* THESE STATIONS ARE NOT UNDER NWS QUALITY CONTROL. THEY ALSO MAY NOT
  REPORT WEATHER SUCH AS PRECIPITATION OR FOG.

ILZ001-002-007-009-015-016-024-100300-
NORTHWEST ILLINOIS

CITY           SKY/WX    TMP DP  RH WIND       PRES   REMARKS
MOLINE         CLEAR     67  59  75 CALM      30.01S
STERLING*      CLEAR     66  55  68 N3        30.03R
SAVANNA*       CLEAR     69  57  67 E3        30.02S
$$

ILZ003-004-008-010-011-017-018-100300-
NORTH CENTRAL ILLINOIS

CITY           SKY/WX    TMP DP  RH WIND       PRES   REMARKS
ROCKFORD       CLEAR     68  50  52 N5        30.04R
FREEPORT*      CLEAR     63  54  74 CALM      30.05S
ROCHELLE*      CLEAR     66  56  70 CALM      30.04R
DE KALB*       CLEAR     64  53  66 N5        30.04S
PERU*          CLEAR     69  57  66 N5        30.03S
$$

ILZ005-006-012>014-019>023-100300-
NORTHEAST ILLINOIS

CITY           SKY/WX    TMP DP  RH WIND       PRES   REMARKS
CHICAGO-OHARE  PTCLDY    70  53  54 NE7       30.02R
CHICAGO-MIDWAY PTCLDY    71  57  61 NE7       30.02R
AURORA         CLEAR     63  56  78 N6        30.03R
LANSING*       CLEAR     67  56  65 NE6       30.02R
JOLIET*        CLEAR     69  50  50 N5        30.02S
WAUKEGAN       CLEAR     60  55  83 CALM      30.02R
DUPAGE AIRPORT CLEAR     68  51  54 N7        30.02R
KANKAKEE*      CLEAR     69  57  65 NW3       30.02R
WHEELING       CLEAR     67  58  72 E3        30.03R
MORRIS*        CLEAR     67  58  74 CALM      30.02R
ROMEOVILLE*    CLEAR     67  51  57 N6        30.02R
NORTHERLY ISL    N/A     66  60  81 NE5         N/A
$$

LMZ740>746-100300-
SOUTHERN LAKE MICHIGAN

STATION/POSITION SKY/WX   TEMP    WIND        PRES    VSBY  WAVE
                          AIR SEA DIR/SP/G                  HT/PER
                          (F)     (DEG/KT/KT) (MB)    (MI)  (FT/S)
SOUTHERN BUOY              59 58   CALM  /  2 1016.9R         0
WAUKEGAN HARBOR            63     200/  3/  3 1017.6S
HARRISON CRIB              65      70/  6/  6   N/A
BURNHAM HARBOR             65      40/  3/  5   N/A
CALUMET HARBOR             67      20/  4/  5 1017.4R
MICHIGAN CITY              67      10/  8/  9   N/A
$$

ILZ025>027-034>036-040-047-049-050-058-095>099-100300-
WEST-CENTRAL ILLINOIS

CITY           SKY/WX    TMP DP  RH WIND       PRES   REMARKS
QUINCY         CLEAR     71  59  65 NE3       30.03S
GALESBURG*     CLEAR     68  61  79 CALM      30.03S
MACOMB*        CLEAR     67  61  79 CALM      30.05R
JACKSONVILLE*  CLEAR     68  62  78 CALM      30.05R
PITTSFIELD*    CLEAR     70  59  66 N3        30.04F
$$

ILZ028>032-037-038-041>044-048-051>054-059>061-100300-
CENTRAL ILLINOIS

CITY           SKY/WX    TMP DP  RH WIND       PRES   REMARKS
PONTIAC        CLEAR     64  63  94 CALM      30.02R
BLOOMINGTON    CLEAR     69  56  63 N6        30.04R
DECATUR        CLEAR     70  57  63 N6        30.02R
PEORIA         CLEAR     70  57  63 NE3       30.02S
LACON*         CLEAR     66  58  76 CALM      30.02R
LINCOLN*       PTCLDY    70  60  70 CALM      30.00R
SPRINGFIELD    CLEAR     66  61  84 CALM      30.03R
TAYLORVILLE    CLEAR     64  61  88 N6        30.02S
$$

ILZ033-039-045-046-055>057-062-063-100300-
EAST-CENTRAL ILLINOIS

CITY           SKY/WX    TMP DP  RH WIND       PRES   REMARKS
CHAMPAIGN      PTCLDY    67  59  75 NW7       30.02R
RANTOUL*       CLEAR     71  58  62 NW6       30.03R
MATTOON        CLEAR     69  58  67 NW3       30.01R
PARIS*         CLEAR     67  61  82 CALM      30.02R
$$

ILZ079-100>102-100300-
SOUTHWEST ILLINOIS

CITY           SKY/WX    TMP DP  RH WIND       PRES   REMARKS
BELLEVILLE     CLEAR     72  62  71 CALM      30.00S
CAHOKIA*       CLEAR     74  58  57 N6        30.01R
SPARTA*        PTCLDY    72  63  73 N5        30.02R
$$

ILZ064>066-069>071-074>076-080>082-084>086-088>090-092>094-100300-
SOUTH-CENTRAL ILLINOIS

CITY           SKY/WX    TMP DP  RH WIND       PRES   REMARKS
CARBONDALE     MOCLDY    75  63  66 N3        30.00R
CAIRO*         CLEAR     76  66  72 CALM      29.99S
MARION         PTCLDY    77  64  65 N5        30.01R
MT. VERNON     CLEAR     73  61  64 CALM      30.01R
CENTRALIA*     CLEAR     70  62  75 N5        30.02R
SALEM*         CLEAR     73  63  71 CALM      30.02R
METROPOLIS*    CLEAR     72  66  82 CALM      29.99R
$$

ILZ067-068-072-073-078-083-087-091-100300-
SOUTHEAST ILLINOIS

CITY           SKY/WX    TMP DP  RH WIND       PRES   REMARKS
FLORA*         CLEAR     72  60  66 N3        30.02R
HARRISBURG*    CLEAR     73  67  82 CALM      30.01R
ROBINSON*      CLEAR     73  62  69 N3        30.01S
CARMI*         PTCLDY    74  67  78 NW5       29.99R
$$

ABBREVIATIONS USED IN REMARKS
   TC - TEMPERATURE IN CELSIUS
  WCI - WIND CHILL INDEX
   HX - HEAT INDEX
  VSB - VISIBILITY
$$



USA.gov is the U.S. government's official web portal to all federal, state and local government web resources and services.